Wind_Speed
12 12 12 12 12 12 12 11 11 11 10 11 11 11 12 12 12 12 13 13 14 14 14 15 15 16 17 18 19 18 19 18 18 13 11 18 19 13 11 10 7 6 10 10 7 5 3 2 5 5 1 2 1 2 3 4 3 2 2 3 4 3 4 4 5 5 3 7 7 7 0 11 10 9 8 10 16 16 16 14 14 15 18 22 27 37 36 32
13 13 13 13 13 13 12 11 11 11 10 11 11 12 12 12 13 13 13 14 14 14 14 15 15 16 17 18 19 17 19 20 17 16 24 25 16 14 16 13 8 7 10 11 10 8 5 3 5 3 3 1 2 2 2 2 2 3 3 3 4 4 4 4 5 7 5 8 9 8 4 8 11 8 8 10 13 18 18 14 17 20 21 24 27 31 31 30
13 13 13 13 13 13 12 12 12 11 11 11 12 12 13 13 13 14 14 14 14 14 14 15 15 16 17 18 18 17 18 16 8 14 26 22 19 19 18 17 12 10 11 10 9 11 8 3 3 1 3 2 3 2 2 3 2 3 4 3 5 4 4 6 7 8 8 9 8 9 5 4 8 6 8 13 15 18 19 14 17 19 19 22 20 23 25 24
14 14 14 14 13 13 13 12 12 12 12 12 12 13 13 14 14 14 14 14 14 14 14 14 15 16 17 18 16 16 14 8 3 10 15 14 21 21 20 20 15 13 13 8 7 10 9 6 4 0 3 3 3 2 2 4 2 2 4 4 6 2 4 8 8 10 11 8 4 7 5 4 2 6 12 16 13 11 13 16 20 20 20 21 18 18 20 18
15 15 15 14 14 13 13 12 12 12 12 12 13 13 14 14 14 14 14 13 13 13 14 14 15 16 18 18 15 13 7 2 3 4 6 10 19 21 23 22 17 16 14 9 9 8 7 5 1 0 2 3 3 1 4 6 2 2 3 5 6 3 5 9 8 12 13 4 0 6 6 4 1 8 12 16 13 7 9 15 21 21 19 19 17 17 17 16
15 16 15 15 14 14 13 13 13 12 13 13 13 14 14 14 14 13 12 13 12 13 14 13 15 16 18 19 12 6 2 1 4 3 3 4 12 21 25 23 20 18 14 11 9 5 4 1 2 1 2 3 4 4 6 4 3 3 5 4 6 6 7 7 7 11 11 3 4 5 4 5 4 7 4 11 14 11 13 16 19 19 19 20 19 18 15 13
16 16 16 16 15 15 14 13 13 13 13 13 14 14 14 14 13 12 12 12 12 13 13 13 15 15 18 16 6 2 1 6 8 3 6 5 4 18 26 24 22 19 16 13 7 4 3 2 2 3 2 3 4 6 6 4 3 5 6 6 6 8 8 7 9 10 7 4 3 4 5 7 6 7 7 13 16 17 17 17 19 17 18 19 17 17 14 13
18 17 16 17 16 15 14 14 13 13 13 14 14 14 14 14 13 12 12 11 12 12 12 13 14 15 17 13 3 1 1 11 13 3 3 4 4 14 24 24 22 20 17 15 11 7 3 3 5 3 2 5 4 4 5 4 3 5 7 8 5 6 7 7 9 8 7 4 3 5 8 8 6 12 14 17 18 20 19 17 18 17 16 16 16 17 14 13
19 18 17 17 17 16 14 14 13 13 14 14 15 14 14 14 13 13 12 11 11 11 12 13 14 15 13 8 2 1 7 20 21 8 3 3 3 12 22 23 23 21 16 16 14 8 5 5 6 5 4 5 4 6 4 2 4 6 8 8 6 7 5 6 8 7 6 3 4 5 7 7 10 16 14 15 19 19 20 19 18 17 16 13 14 15 13 14
20 19 19 17 17 17 15 14 13 13 14 14 15 15 14 14 13 13 12 12 11 11 12 11 12 12 10 5 1 2 8 15 17 12 8 6 6 14 21 22 24 22 16 13 13 10 7 7 5 4 4 4 4 5 3 4 4 5 5 7 8 9 4 4 7 7 5 3 2 1 4 6 5 10 9 11 18 19 19 18 15 16 15 13 13 12 13 14
19 19 19 18 17 17 16 14 14 13 14 14 15 15 15 14 14 13 12 12 11 11 11 10 11 11 9 5 2 5 3 6 6 5 7 9 11 16 20 22 23 25 19 11 14 18 14 12 5 1 2 3 4 5 5 5 5 6 6 7 10 9 4 4 6 7 2 2 2 3 4 3 1 8 13 13 16 19 21 19 16 17 14 14 14 12 11 12
20 19 19 19 18 18 17 15 14 14 14 14 15 16 16 14 14 13 12 12 11 10 9 10 9 8 7 4 6 12 8 14 9 5 2 8 14 16 17 19 20 24 23 12 14 23 21 16 5 1 4 3 3 3 5 6 4 6 7 5 8 6 4 5 6 5 3 2 1 1 2 4 2 11 18 15 15 18 22 20 17 16 14 13 13 11 9 11
20 19 19 19 19 18 17 16 14 14 14 14 16 16 16 15 14 13 13 11 11 10 9 8 7 7 4 2 14 23 15 5 8 7 3 4 10 15 15 16 15 18 22 19 18 22 23 18 6 3 5 3 4 3 5 6 3 6 4 4 4 3 4 5 5 4 5 3 3 5 2 6 1 9 8 7 14 19 19 17 16 14 13 12 11 10 10 11
20 20 19 19 20 19 17 16 15 14 14 14 15 16 16 15 15 14 13 12 11 10 9 7 7 5 1 6 19 26 22 19 23 20 12 8 10 13 16 18 15 15 18 21 21 20 21 17 8 5 4 3 6 6 8 6 3 5 3 2 2 2 4 7 2 7 6 2 5 8 2 5 4 12 7 4 10 18 17 14 15 14 12 11 10 11 10 10
20 20 20 19 19 19 18 16 15 15 14 15 15 16 16 15 16 15 14 13 11 10 9 8 7 3 1 9 17 17 16 15 20 22 17 15 13 9 13 20 20 19 18 19 19 18 18 12 5 3 4 5 5 5 6 4 3 1 1 3 1 4 4 8 2 8 7 1 6 8 2 4 7 14 11 8 9 15 17 14 15 15 14 13 11 11 9 9
20 20 20 18 17 19 19 16 15 15 14 15 16 16 16 16 16 15 13 12 11 10 8 6 6 6 1 6 9 9 7 5 15 22 19 19 17 10 11 17 20 20 19 19 18 16 14 8 3 4 4 4 3 4 3 4 4 2 2 3 2 4 3 5 5 5 9 4 4 7 3 2 7 17 17 15 14 15 17 16 16 16 14 13 11 10 10 9
20 20 19 18 18 18 18 16 15 14 14 16 17 16 16 16 15 14 13 12 12 10 8 5 3 5 5 7 7 6 6 10 15 18 18 19 19 15 9 7 12 16 16 17 16 11 7 5 3 3 4 3 3 4 2 3 4 4 1 3 3 4 3 1 5 5 6 5 3 4 4 5 10 15 15 15 17 16 17 17 18 16 14 12 11 11 10 9
20 20 19 19 18 18 18 17 14 12 14 15 15 16 17 15 14 15 14 10 6 4 6 7 3 2 6 9 6 4 7 11 12 13 16 16 16 16 10 5 5 9 9 8 8 6 3 2 3 3 3 4 5 5 4 5 5 4 3 3 2 2 3 5 5 3 5 6 4 5 8 10 11 9 8 10 14 17 17 17 17 16 15 12 10 10 9 9
20 20 19 18 18 18 17 16 13 11 12 13 14 16 16 11 8 9 10 6 2 2 2 5 6 3 4 7 7 6 7 10 9 9 13 14 13 12 9 6 3 6 6 3 4 5 4 1 3 5 5 5 6 6 7 7 6 6 5 4 4 3 3 5 5 4 6 5 5 9 8 11 10 8 8 7 11 17 17 17 15 13 12 10 10 9 9 9
19 19 19 18 18 16 16 15 12 11 10 12 13 12 8 4 2 3 4 4 6 6 2 4 9 6 7 3 1 7 9 8 7 7 14 17 11 5 4 3 1 3 5 5 4 4 5 4 5 6 6 7 8 8 8 7 5 4 3 3 5 5 5 5 4 6 6 6 5 10 10 10 10 9 10 8 10 15 16 15 12 11 10 9 10 10 11 9
17 18 18 17 17 15 15 14 11 10 9 11 9 4 1 2 2 1 1 4 10 12 9 6 12 13 13 9 7 13 11 8 8 6 16 19 11 4 2 3 3 4 5 7 5 2 5 6 6 7 7 8 8 8 8 7 5 4 3 3 4 4 5 5 5 6 6 8 3 11 14 10 10 10 9 8 10 12 11 12 12 12 11 9 10 10 10 8
16 17 17 16 15 14 14 13 11 9 8 10 8 4 5 7 4 3 3 3 7 13 14 11 12 14 19 20 17 11 5 6 9 9 13 17 10 5 4 4 5 4 5 8 5 3 5 6 7 8 7 8 7 6 7 7 7 4 3 3 5 3 2 4 5 4 8 8 4 12 15 9 8 10 8 6 7 9 9 11 11 11 11 9 9 10 9 8
14 15 15 15 14 13 14 13 11 8 10 12 10 9 11 12 5 9 6 2 5 8 10 10 11 12 16 17 14 8 4 5 6 8 12 16 9 7 5 5 7 5 5 9 7 6 5 5 8 8 7 8 6 6 6 6 6 4 4 4 4 3 3 3 5 2 8 7 8 14 13 7 7 8 9 8 7 9 10 11 11 10 10 10 9 8 8 9
14 14 13 12 12 12 14 11 9 10 14 14 16 20 21 19 11 11 7 2 5 5 8 12 11 9 14 12 7 6 5 6 6 7 12 17 9 7 7 5 7 6 6 9 8 7 3 3 8 8 7 8 7 8 7 5 4 4 6 7 5 4 5 4 1 7 10 7 12 16 9 2 3 6 7 6 7 9 10 11 11 9 9 9 8 8 7 8
13 12 10 10 10 11 13 9 9 14 14 13 18 24 23 23 19 9 4 2 4 3 7 11 7 8 14 10 7 7 2 5 8 9 11 17 12 8 6 5 6 7 9 10 7 6 5 5 8 8 7 7 7 9 8 7 4 5 7 10 8 5 5 5 3 9 8 3 8 11 7 2 1 5 6 6 6 8 8 9 10 9 8 8 8 8 7 8
11 10 8 8 10 11 10 5 8 10 8 11 16 17 14 16 15 7 1 2 3 2 5 7 6 7 9 9 8 6 2 5 10 12 13 19 17 10 6 5 4 7 9 8 4 3 5 6 8 9 9 8 8 9 9 7 5 5 6 8 8 6 6 7 5 8 6 6 9 6 6 3 3 5 6 7 8 8 8 9 10 9 8 8 8 7 7 8
8 7 5 7 12 13 9 3 3 2 5 8 10 12 13 15 9 7 2 3 3 3 7 5 5 7 8 11 11 8 3 4 6 10 14 21 17 9 7 6 5 6 6 6 4 3 7 8 9 11 10 9 8 9 9 8 6 6 5 6 7 7 8 9 7 9 5 7 8 4 5 5 3 6 8 7 8 8 8 9 9 8 9 9 9 8 8 7
6 5 5 9 13 13 9 5 6 3 6 11 13 14 19 18 5 8 1 1 1 2 6 3 6 7 6 10 13 8 5 3 4 5 13 24 17 6 7 7 6 7 7 8 6 3 8 10 11 12 11 8 8 9 9 9 7 7 5 6 6 7 8 10 7 7 4 6 6 2 5 5 2 6 8 7 8 8 8 9 9 10 11 11 11 10 8 7
4 4 7 10 10 10 10 10 10 9 12 16 16 18 26 19 4 6 1 1 2 2 4 3 6 6 3 9 11 9 5 1 3 3 9 20 15 5 5 6 6 8 7 7 6 4 7 10 11 12 10 8 9 11 10 9 8 7 5 5 3 3 5 7 5 5 4 6 8 9 8 5 2 6 9 8 9 11 8 7 8 10 11 11 12 11 9 8
2 5 7 7 6 6 7 11 11 10 13 15 17 23 24 10 4 3 0 2 3 2 2 2 4 4 6 10 7 9 6 3 3 3 6 10 10 4 4 4 4 6 6 5 6 6 6 8 9 8 8 9 10 10 9 10 10 5 3 4 1 2 4 2 1 5 5 5 7 12 10 6 4 6 10 8 7 13 12 7 8 8 10 11 11 10 9 8
3 4 5 4 5 3 3 5 6 8 8 14 21 22 12 1 1 2 3 3 2 2 2 3 4 4 9 11 7 7 7 5 3 5 5 6 7 4 4 5 3 3 5 5 6 7 7 7 6 5 8 10 9 9 8 8 10 6 3 4 3 3 5 2 3 3 5 5 5 8 7 5 5 6 9 7 4 14 15 11 13 11 10 10 9 9 9 8
4 3 4 5 6 5 6 6 8 6 8 18 20 10 1 3 1 2 2 5 2 1 1 4 5 5 10 10 7 7 6 3 3 4 6 6 6 5 5 6 4 4 5 5 5 6 7 6 5 5 9 11 9 7 6 6 7 6 4 4 4 1 3 2 1 1 4 5 5 8 5 2 2 3 6 7 8 11 9 9 13 13 11 10 8 8 8 7
2 1 5 6 7 9 10 11 11 7 12 21 12 1 2 2 2 3 2 4 1 2 2 5 6 7 11 9 7 7 5 3 3 4 7 7 6 7 6 5 6 6 4 4 5 5 5 5 5 7 6 10 11 7 5 5 5 6 5 5 5 3 3 3 2 1 2 3 1 4 6 3 2 2 1 6 11 9 9 9 10 10 10 10 9 9 7 6
4 6 8 8 8 10 10 9 7 7 16 18 4 3 2 2 2 0 0 2 3 5 4 3 7 10 11 9 7 7 4 4 4 4 7 8 6 7 9 7 7 6 4 4 5 6 7 6 6 8 4 7 12 10 8 6 5 6 5 6 5 5 5 3 3 2 3 2 4 3 3 2 1 2 3 7 10 10 11 9 8 9 8 9 10 9 7 6
6 7 9 10 10 10 8 6 5 9 14 8 3 3 1 2 1 1 0 3 3 5 8 3 7 10 8 7 7 7 5 3 5 4 5 8 7 7 8 7 8 6 4 5 4 4 8 7 6 7 6 8 10 8 7 8 4 4 4 6 4 6 5 2 4 5 4 3 3 3 1 1 2 3 5 8 11 11 11 9 9 9 9 9 9 7 7 5
8 8 8 10 10 6 3 3 4 8 9 3 5 1 1 2 3 2 2 4 5 6 9 4 6 8 6 5 5 8 6 2 4 4 3 6 8 8 8 7 8 9 5 5 3 3 6 5 6 5 7 8 9 9 8 7 5 3 3 4 5 6 7 4 3 3 4 5 1 1 3 3 3 3 4 9 11 11 10 10 10 10 10 9 7 6 6 5
10 9 7 10 10 4 1 4 3 6 5 2 3 2 2 4 5 5 5 7 8 6 5 1 4 4 5 5 4 9 8 2 3 3 2 5 6 9 10 7 7 10 8 5 2 2 6 3 7 6 9 10 7 9 7 6 6 5 4 6 4 3 3 4 3 0 2 3 1 1 4 6 4 2 5 10 11 11 11 10 10 10 9 8 6 6 5 5
12 9 6 9 6 2 3 5 4 4 2 2 1 2 3 4 5 6 8 9 8 4 2 1 1 0 5 6 4 8 9 5 4 3 3 4 3 7 11 7 7 10 10 7 3 2 4 3 6 6 9 7 3 7 6 3 3 5 6 5 3 4 1 1 3 2 2 2 1 1 4 6 4 5 10 13 13 13 12 11 10 10 9 8 6 6 6 6
9 5 4 7 2 6 5 5 3 1 2 2 1 1 3 5 7 9 10 10 6 3 3 1 1 2 3 5 5 7 9 7 5 2 3 4 3 7 11 7 7 10 10 8 5 3 2 3 4 5 6 5 3 4 6 4 1 2 4 1 1 4 4 3 3 4 4 3 2 3 5 4 3 7 14 15 15 15 14 11 10 9 9 7 6 6 6 6
5 1 2 8 4 10 10 6 2 2 3 1 1 2 4 6 9 11 11 12 5 1 2 3 2 3 1 0 1 4 6 6 5 2 3 5 4 6 10 9 7 10 12 9 5 2 1 3 2 5 2 5 4 4 7 7 3 2 3 1 1 2 2 2 2 2 5 5 3 3 4 4 2 6 13 15 13 13 13 11 10 9 9 8 6 6 5 5
2 1 2 7 7 15 12 6 1 1 2 2 2 4 6 7 9 11 13 12 4 3 3 3 1 1 1 2 2 1 3 5 6 3 2 5 6 4 7 10 8 8 9 9 6 3 2 3 2 3 1 5 5 5 7 9 7 6 4 4 4 3 3 3 2 2 3 5 4 5 4 4 2 3 9 12 11 10 11 12 10 9 9 8 6 6 5 5
1 0 3 5 10 15 8 3 1 1 0 2 3 5 8 7 9 11 12 10 2 2 2 2 2 2 1 1 2 2 2 4 6 5 3 6 9 6 6 10 11 9 7 6 7 5 2 3 3 3 3 5 6 5 9 9 7 7 5 4 5 5 4 5 4 4 2 4 3 3 2 2 1 0 6 10 10 10 10 11 11 9 9 9 7 7 7 7
1 2 3 3 8 8 3 2 1 2 2 4 5 8 8 8 8 9 10 9 3 0 2 1 1 1 1 3 1 1 2 2 6 8 4 5 10 11 10 11 13 12 7 5 6 5 2 2 3 3 3 2 3 3 5 7 6 5 3 3 5 4 4 6 5 3 4 4 4 3 1 2 1 1 9 12 10 10 10 11 12 10 8 9 9 9 9 8
1 1 2 1 4 1 1 1 1 1 3 4 6 8 7 7 8 8 8 6 3 2 3 2 1 1 2 2 1 2 3 1 5 8 7 5 8 12 13 12 14 13 7 6 6 5 4 2 3 3 1 2 1 1 3 4 4 4 2 3 4 5 5 4 1 2 3 4 5 5 2 2 1 4 12 14 12 12 10 11 12 11 9 9 9 9 9 9
1 1 1 2 3 1 1 1 1 2 4 5 5 7 7 5 5 7 8 6 2 1 1 2 3 3 4 2 2 5 4 2 4 6 7 6 5 9 13 13 14 13 9 8 8 6 5 3 3 5 5 4 5 5 5 5 4 3 4 5 4 5 6 4 1 2 3 3 4 5 4 2 3 8 14 15 14 13 11 11 11 10 11 11 10 9 8 8
0 1 1 0 2 2 3 2 1 2 3 3 3 5 5 4 5 6 7 6 3 1 1 3 4 5 4 3 3 4 3 3 3 3 6 7 4 5 12 14 14 13 11 12 11 6 3 3 3 6 7 6 6 6 5 4 3 3 3 5 5 5 6 6 3 3 5 4 2 2 8 10 8 12 15 15 16 15 13 12 11 10 12 11 10 9 9 8
0 1 1 2 2 3 3 3 3 3 4 3 2 3 6 7 7 5 4 4 4 3 1 4 4 2 1 3 3 2 4 3 1 1 3 7 6 6 10 13 14 14 13 12 10 5 4 3 4 5 6 7 7 4 3 7 4 1 2 1 4 6 8 7 4 5 7 7 0 3 13 15 12 15 17 17 16 16 14 13 12 12 12 11 10 10 10 8
0 0 1 2 2 2 3 3 4 5 6 5 2 4 7 9 7 4 2 2 1 0 1 2 3 0 0 1 1 2 5 5 3 3 4 2 5 6 7 8 11 14 11 8 7 6 5 3 3 4 5 4 4 6 9 10 5 5 7 5 3 4 8 8 5 5 7 6 6 11 15 14 13 14 15 15 15 15 15 14 12 13 13 12 11 11 10 9
1 1 2 1 0 2 3 4 4 5 6 6 3 4 6 6 6 5 3 2 1 1 1 2 2 4 3 2 1 1 3 3 3 3 4 3 4 2 4 3 5 8 8 6 5 4 4 2 3 5 6 6 4 6 11 11 6 7 8 8 6 1 5 6 4 4 5 4 10 18 15 9 10 11 10 11 12 13 13 12 12 14 14 14 13 11 10 9
1 1 1 2 2 3 3 3 2 2 3 4 3 4 3 3 5 5 3 3 3 2 2 3 3 4 5 4 2 0 2 2 1 3 4 3 4 2 3 2 3 2 5 6 4 1 3 3 2 5 6 6 6 6 11 12 10 8 8 9 9 7 7 8 7 8 10 8 12 18 14 7 6 9 11 11 10 12 13 13 13 14 14 14 13 12 11 10
2 3 2 1 3 3 2 3 2 1 2 2 2 3 3 3 4 6 5 5 5 4 4 4 6 5 4 5 3 4 4 3 3 5 4 0 2 2 1 1 1 1 2 4 3 2 4 2 1 5 6 3 4 4 9 11 12 9 7 10 10 6 4 5 3 3 8 13 15 14 10 7 8 11 13 12 12 14 15 15 13 12 12 14 14 12 11 10
3 4 3 2 2 2 2 3 1 1 1 2 2 2 3 4 5 5 5 4 4 5 6 4 5 5 3 5 5 6 5 4 4 5 4 2 2 3 3 4 6 6 1 1 2 2 4 5 2 4 5 1 5 1 4 7 8 4 3 4 4 4 1 4 4 3 10 16 14 9 8 10 13 15 15 14 15 15 14 14 13 12 13 13 13 13 12 10
Wind_Direction
304 305 307 307 307 308 307 309 311 310 312 310 311 312 310 311 309 309 310 310 311 310 312 315 317 320 320 323 323 321 323 317 309 301 251 241 240 225 212 208 201 212 226 231 229 234 236 219 234 214 216 327 204 230 231 197 191 144 154 203 223 225 225 207 227 248 285 295 291 299 259 115 105 100 93 73 81 90 84 76 79 81 93 105 115 127 133 137
297 299 301 301 302 304 305 306 307 310 312 309 309 310 309 309 308 306 307 309 311 310 311 314 316 319 320 323 321 321 326 316 309 287 251 242 244 228 217 215 198 192 205 210 219 216 189 196 235 194 109 325 246 248 262 233 177 161 176 200 218 216 235 224 250 279 303 294 299 305 286 124 130 130 110 101 99 98 91 88 96 96 101 110 118 124 130 137
291 292 294 296 297 299 302 303 304 307 308 307 306 306 307 307 307 306 304 305 309 311 311 312 314 318 321 321 320 325 324 316 308 267 258 247 237 227 211 210 197 193 207 208 219 214 204 249 284 164 140 232 259 247 271 270 241 193 184 215 240 232 272 273 271 280 277 277 298 304 295 127 151 145 112 120 115 110 113 120 116 114 120 123 125 125 131 134
285 285 288 289 292 294 297 299 301 304 304 306 305 305 306 305 305 304 303 301 304 311 311 313 315 317 321 321 321 324 321 314 275 252 263 244 227 220 205 203 193 201 218 226 232 215 230 291 333 325 185 237 263 230 241 247 253 222 176 198 231 240 296 279 277 284 280 261 262 305 342 40 136 129 127 126 113 113 130 137 131 128 131 128 126 126 127 122
281 280 282 283 286 288 291 294 296 299 302 305 305 303 303 304 304 303 304 301 301 308 311 313 315 318 322 320 318 317 319 311 277 255 265 236 218 209 202 197 189 204 217 226 233 219 253 289 17 318 214 238 253 209 246 234 220 267 226 208 220 235 274 277 290 289 286 272 325 344 5 343 8 121 139 135 125 136 141 135 129 129 131 125 121 121 121 120
277 276 276 278 280 281 284 288 291 296 299 302 303 303 302 303 304 304 305 303 302 307 311 314 316 321 322 320 318 300 242 223 300 360 358 249 211 202 196 192 190 204 213 218 225 218 257 272 120 205 193 238 231 208 252 245 171 243 271 243 226 226 240 275 292 278 284 343 15 339 335 324 66 95 119 121 118 125 127 126 123 124 122 114 114 118 121 126
272 273 272 271 273 276 279 282 286 290 295 299 301 301 301 303 304 303 305 305 305 307 312 317 319 323 325 329 327 210 207 274 275 350 37 52 178 194 189 189 193 203 210 207 203 196 205 158 181 196 177 254 234 215 247 259 189 210 258 258 235 227 226 257 268 270 299 350 329 314 353 357 65 85 73 95 107 116 121 124 119 113 105 103 110 116 121 123
273 269 271 271 268 269 274 277 281 285 291 296 296 298 300 301 302 301 304 307 306 309 314 316 322 325 330 339 334 169 272 247 240 240 10 31 94 177 184 188 195 202 203 201 196 185 166 185 216 187 184 237 230 244 250 258 253 211 234 249 240 233 222 237 254 276 306 313 332 3 21 19 82 99 100 108 116 123 125 123 112 102 95 99 111 116 118 117
284 271 267 269 268 267 268 272 277 280 287 292 292 295 297 298 300 301 304 306 306 309 313 318 325 325 330 332 302 314 248 234 230 228 248 266 129 166 183 188 195 198 197 207 203 181 166 196 214 191 202 239 240 262 250 220 256 212 212 234 235 241 227 216 239 253 266 284 17 11 43 70 96 94 101 120 125 128 125 117 105 100 101 103 112 116 117 120
292 280 267 262 265 267 264 266 272 277 283 288 290 292 294 297 298 299 300 302 306 306 312 322 323 326 332 325 189 218 258 236 231 234 229 233 192 175 184 189 195 196 196 209 204 191 193 206 206 183 219 261 254 258 246 185 229 241 230 241 238 245 241 181 235 252 251 295 346 301 99 121 137 101 110 137 135 131 119 110 105 105 107 109 112 115 118 122
293 288 275 263 261 265 263 261 265 273 279 283 288 290 292 295 294 297 298 298 303 303 311 320 323 330 326 324 176 223 243 123 147 211 224 226 199 182 189 195 197 197 198 202 210 209 210 224 228 76 241 250 261 280 288 241 242 272 256 262 257 252 259 169 232 262 243 302 280 228 130 125 247 122 140 156 143 131 119 114 111 110 111 113 113 114 116 117
291 290 281 268 260 260 260 259 259 268 276 280 284 287 289 291 292 294 294 296 300 301 309 314 325 332 318 315 229 224 160 114 94 79 154 222 212 202 195 197 201 201 200 194 217 219 216 229 231 118 249 268 287 274 279 269 270 262 225 242 270 274 282 203 212 245 190 216 220 178 345 353 19 139 148 152 142 126 119 120 115 113 114 113 113 113 113 114
291 289 285 275 264 256 256 257 257 262 271 277 281 285 288 289 289 290 289 292 295 297 306 311 319 323 327 292 235 225 200 187 309 312 257 241 237 230 209 198 204 206 205 203 215 221 219 228 223 218 261 300 285 269 290 305 325 278 225 193 256 333 312 236 197 187 186 219 132 118 278 297 66 116 113 121 131 121 116 118 116 114 113 113 113 111 111 112
289 287 285 281 269 258 255 253 254 260 267 274 280 283 284 286 285 285 287 288 290 295 301 302 301 309 310 258 254 247 251 274 291 284 256 252 267 257 230 208 205 207 208 212 218 222 223 229 230 244 272 247 254 293 307 314 331 288 270 200 202 145 271 271 208 162 184 250 116 114 186 255 82 82 61 54 120 118 114 115 114 114 111 111 110 108 109 108
286 284 281 280 270 258 253 249 250 256 263 272 277 280 281 284 285 287 291 289 287 289 296 291 264 261 318 270 271 275 279 285 279 262 244 251 265 270 237 210 205 210 208 213 218 220 224 228 229 246 268 247 248 286 302 319 329 305 225 278 286 162 254 298 268 169 182 220 119 119 174 243 108 117 142 144 128 116 112 113 111 110 110 111 108 105 107 104
284 283 278 276 269 257 251 246 246 252 262 269 272 276 279 282 285 290 292 284 283 283 290 294 225 199 243 274 283 299 294 269 255 245 239 247 244 238 239 214 204 209 207 213 218 220 221 218 211 214 239 265 245 242 294 339 320 345 139 222 233 175 220 308 296 212 186 164 120 143 180 270 123 144 158 144 134 119 112 115 111 109 109 107 106 106 107 104
282 283 278 273 268 258 250 243 242 250 262 269 273 277 280 285 289 293 291 281 284 275 254 264 205 192 251 278 302 305 245 226 238 241 239 240 233 231 248 227 201 196 200 211 216 218 211 193 196 214 219 224 202 189 240 276 268 306 91 180 211 186 172 224 293 276 181 150 143 142 89 74 121 142 149 138 133 120 116 118 112 112 109 104 106 104 101 97
280 281 278 272 266 257 245 238 238 245 261 272 278 280 283 289 291 289 286 279 285 270 242 256 245 182 255 264 262 244 221 226 236 239 234 230 230 233 236 245 213 178 185 206 209 200 183 179 178 221 239 195 184 161 186 223 208 227 207 162 214 211 177 198 242 263 160 151 135 88 70 95 111 110 114 125 125 115 117 118 114 115 109 105 103 96 90 83
279 278 276 271 265 255 241 233 232 241 260 273 279 287 291 294 290 277 273 269 190 162 214 220 198 172 280 252 224 247 259 246 248 241 231 226 227 233 226 240 247 162 169 187 213 193 162 176 176 207 232 193 191 176 187 211 183 195 205 166 184 199 223 219 237 241 157 129 85 91 103 115 104 80 87 101 110 112 116 116 114 112 106 104 99 93 88 78
280 275 275 271 266 256 239 229 227 236 253 266 283 305 308 292 290 262 252 241 218 232 273 190 198 242 302 279 110 354 325 281 267 232 223 222 212 209 205 212 223 179 181 170 207 204 152 185 212 209 213 193 200 190 190 216 198 210 239 218 202 193 237 232 236 247 158 106 75 100 103 101 97 92 99 104 106 110 115 114 108 105 105 104 100 99 93 85
279 273 272 268 266 256 237 226 220 230 245 257 277 311 303 205 143 86 233 232 233 243 265 234 213 241 267 273 328 360 351 308 298 256 224 218 195 164 192 166 162 213 200 172 187 201 161 197 221 213 205 195 202 193 191 223 235 243 258 282 263 211 239 242 231 243 123 101 116 103 88 83 96 99 102 107 104 102 106 107 104 105 105 102 103 101 95 94
279 273 270 263 262 252 234 220 213 225 237 246 256 246 254 239 191 24 330 261 250 234 241 246 232 248 259 267 286 312 328 287 294 287 224 204 183 170 187 153 169 213 195 179 180 183 192 215 216 208 199 189 204 204 199 224 233 237 236 252 268 238 247 284 261 213 109 108 153 108 95 89 88 89 84 71 84 90 89 93 99 101 100 101 103 101 102 102
278 275 269 260 258 245 227 215 206 216 226 232 236 229 246 242 238 356 344 273 277 230 218 237 234 247 256 263 269 257 252 242 260 279 212 187 179 181 180 153 176 204 189 188 185 170 191 221 207 202 188 178 208 227 214 233 238 221 216 226 243 192 137 291 281 134 97 111 136 109 99 98 83 79 71 59 72 83 77 78 81 82 89 96 97 97 104 102
277 273 262 253 255 237 218 208 201 218 229 232 238 241 251 254 270 344 351 244 278 239 205 218 217 239 247 248 242 202 218 222 221 261 207 181 176 179 184 167 173 200 201 192 181 172 210 218 188 189 186 179 202 233 222 218 243 228 213 219 220 181 163 213 250 82 75 93 120 104 82 49 88 99 92 86 87 86 86 84 81 80 82 86 88 87 90 93
274 269 256 249 249 224 201 197 218 227 230 233 248 257 264 267 269 297 334 275 280 249 210 209 201 245 239 220 212 196 214 247 228 246 209 182 177 172 185 183 174 201 199 188 175 176 228 215 174 178 196 190 197 230 222 188 218 257 230 219 211 187 182 206 146 101 91 124 150 119 96 316 222 130 132 127 109 100 104 101 100 103 95 92 92 91 90 89
270 261 252 239 219 194 178 196 234 228 224 232 257 277 288 285 271 243 221 329 288 238 169 173 173 220 214 174 181 171 68 281 233 234 218 191 184 177 184 189 177 199 190 181 183 181 211 203 178 182 197 201 205 229 224 178 181 250 237 210 201 187 201 226 180 138 141 181 202 184 126 165 220 169 163 144 126 121 118 115 119 118 108 109 106 103 104 97
264 251 239 212 190 174 169 224 269 208 206 242 287 311 312 307 274 202 171 13 287 206 146 156 172 175 176 165 159 141 151 256 221 228 212 187 183 179 188 194 173 189 176 166 205 187 179 190 191 192 197 203 209 227 218 171 170 238 227 172 175 181 206 234 199 165 174 164 187 232 112 130 202 180 174 153 131 136 133 127 128 127 122 120 118 113 109 107
253 234 210 190 182 182 197 278 316 295 261 283 306 315 319 318 255 178 141 47 225 158 135 182 190 168 167 158 152 166 222 223 173 215 189 177 180 172 190 206 174 181 181 176 202 191 172 190 197 192 199 208 210 223 210 171 190 238 215 166 167 176 205 230 201 166 180 162 168 201 118 119 183 168 166 161 148 154 157 151 145 139 135 127 124 122 112 111
232 209 194 181 183 200 228 275 292 294 300 306 308 313 323 323 216 167 2 193 191 146 130 162 179 181 152 131 155 204 245 301 194 186 153 172 185 175 186 201 169 185 203 185 188 198 187 196 197 189 198 209 211 223 208 180 209 233 209 195 152 149 224 231 187 143 155 180 183 188 166 124 144 175 169 170 174 174 170 169 160 144 140 134 127 128 120 113
182 180 176 171 187 216 251 266 278 306 315 315 317 318 321 320 174 147 97 224 236 191 143 149 171 177 146 135 168 214 224 280 241 138 121 172 185 164 162 172 162 193 212 190 188 214 213 202 201 192 197 205 207 220 211 195 213 228 221 222 129 32 302 281 113 107 144 205 206 193 186 143 148 195 184 182 184 173 167 164 163 147 139 137 132 131 125 116
123 165 174 177 200 237 282 267 300 324 308 315 323 321 321 22 101 133 170 257 271 168 126 148 159 152 151 154 174 196 202 259 260 144 145 174 176 169 165 177 191 193 204 206 206 232 238 215 205 193 192 196 200 216 219 209 214 221 218 182 146 315 310 333 7 77 151 224 237 199 193 157 167 207 202 202 164 162 168 163 156 151 141 138 132 129 124 117
100 143 216 223 230 261 267 274 313 314 304 323 327 321 24 93 353 217 240 321 355 140 198 162 151 148 158 169 186 183 180 226 245 174 163 163 178 193 183 181 176 165 200 209 194 224 243 234 217 203 194 189 190 208 223 224 214 211 201 139 133 250 275 242 254 159 187 240 229 185 183 200 201 222 216 190 150 154 163 151 147 145 140 139 130 122 118 114
70 252 252 251 261 268 265 284 303 293 310 323 322 279 95 101 190 215 289 329 2 316 284 165 151 154 161 173 191 183 174 197 215 189 175 164 170 195 206 200 164 152 178 181 168 199 239 268 235 208 201 187 185 188 202 219 210 200 191 148 142 156 176 232 236 134 205 242 269 172 181 234 285 328 316 146 140 140 133 131 137 135 134 133 123 116 113 111
302 296 286 281 278 274 279 299 299 286 307 318 329 121 107 155 211 64 30 276 275 309 316 166 151 154 167 184 191 178 175 213 209 177 176 169 165 196 211 210 179 150 134 159 174 188 201 245 231 201 207 188 186 190 179 171 183 201 176 136 149 163 155 205 201 163 192 181 21 23 179 233 305 9 28 112 122 119 121 125 122 118 119 116 111 109 108 109
316 313 309 304 296 285 287 297 290 290 300 318 67 93 138 186 277 24 307 289 303 327 327 306 158 155 174 193 200 194 182 208 206 184 186 179 176 197 203 206 196 170 139 165 194 189 189 232 239 196 208 191 178 189 171 147 176 219 149 123 174 180 146 145 180 173 168 134 38 16 115 34 58 67 65 103 111 110 113 107 102 107 108 107 106 106 110 112
334 329 323 314 308 303 282 252 270 287 291 353 74 100 211 235 281 329 313 306 315 322 330 331 150 152 174 181 201 212 201 189 189 190 214 184 176 193 201 205 196 186 173 167 200 189 170 247 267 192 209 214 179 173 174 164 181 202 151 179 205 165 132 129 180 171 111 113 147 202 124 102 95 84 97 114 111 110 109 101 104 109 108 107 106 112 120 124
344 336 322 302 298 301 163 186 224 281 289 39 81 187 237 267 283 307 305 303 302 304 334 4 155 154 169 170 192 200 193 203 192 182 215 194 181 192 201 208 193 192 192 164 194 208 149 228 269 189 197 230 188 156 176 177 154 150 194 215 199 131 109 112 147 227 60 109 199 221 153 160 158 144 148 137 127 128 125 117 118 117 114 113 115 125 127 122
344 333 308 300 291 205 182 191 206 277 314 72 23 256 257 266 279 290 288 295 300 304 348 348 238 115 153 166 193 186 179 192 189 169 198 211 207 190 192 203 200 197 198 179 198 270 137 174 268 211 187 218 173 140 180 209 132 142 180 196 155 155 205 104 146 179 116 113 222 202 175 185 185 164 161 158 152 149 142 134 130 126 124 123 123 129 125 118
350 339 313 337 35 158 186 184 193 319 63 92 299 262 261 273 279 282 285 296 310 341 336 321 356 354 158 170 187 177 176 184 176 164 193 199 227 207 191 192 204 202 200 190 195 240 133 135 255 252 190 175 156 156 188 214 339 106 142 155 106 146 169 163 157 156 139 147 184 173 185 218 210 169 168 168 163 155 150 144 136 131 131 130 129 129 125 123
5 8 315 358 67 157 157 135 122 32 82 123 264 260 279 286 281 285 296 299 305 97 263 290 4 1 2 340 206 175 178 179 172 198 204 189 210 221 200 187 196 204 201 202 204 226 243 147 223 277 214 156 196 212 186 179 177 149 147 188 142 98 130 156 158 126 125 145 162 154 198 244 235 173 171 168 160 155 150 141 134 134 131 128 128 127 127 121
10 72 336 18 108 154 142 111 74 58 107 245 268 265 276 283 282 294 304 297 277 157 222 252 272 308 10 349 310 201 173 174 181 199 196 187 187 208 213 197 192 199 197 207 216 202 196 175 194 274 195 176 224 220 178 177 174 156 164 195 170 132 123 135 230 273 109 133 162 158 195 236 272 192 170 157 151 149 142 133 131 133 128 126 130 126 121 109
55 84 329 40 124 151 134 77 258 169 174 248 252 267 277 282 285 298 309 306 292 161 242 240 236 258 200 220 273 281 219 181 186 192 181 193 193 201 224 204 196 198 186 199 216 196 142 128 160 229 221 205 225 208 175 172 156 142 169 192 150 133 134 144 205 249 86 106 134 119 170 206 336 213 145 136 138 138 134 132 129 129 129 128 126 115 106 100
114 312 319 72 136 148 100 55 230 225 240 253 259 269 278 282 288 300 307 308 316 354 293 275 269 293 242 248 282 291 274 203 189 194 180 194 205 211 213 197 195 200 188 189 208 195 163 129 154 225 287 299 280 244 186 162 133 138 189 166 134 147 160 155 182 184 126 147 144 96 185 218 333 102 128 126 129 129 132 134 130 130 131 124 118 110 104 101
197 294 318 161 169 178 52 118 206 236 251 271 277 282 286 278 278 284 286 288 305 3 344 307 298 330 283 284 275 243 263 245 203 202 185 197 218 214 212 202 195 197 194 186 182 183 208 198 128 146 137 18 348 282 234 198 161 159 184 163 157 159 143 142 203 117 128 196 164 131 174 251 346 127 129 128 131 133 139 143 137 136 134 122 115 111 108 105
193 142 310 243 214 243 269 235 319 304 290 300 295 289 286 271 267 277 284 290 282 194 287 293 296 294 287 294 270 257 249 179 204 207 192 209 232 212 210 208 199 199 197 181 166 160 188 185 120 142 166 173 179 201 219 206 192 179 154 151 162 153 142 147 159 142 187 205 145 135 156 128 103 131 134 136 140 140 144 145 140 136 129 123 120 117 114 110
307 110 13 338 187 222 260 275 283 271 287 309 298 280 282 295 306 303 307 325 352 47 230 276 284 280 284 308 298 275 265 217 215 218 204 213 236 217 204 201 202 203 189 171 162 137 136 189 155 143 164 177 186 212 210 155 157 201 166 150 161 148 127 120 124 181 186 157 103 150 144 133 142 149 146 148 147 144 147 146 140 132 126 124 126 123 118 114
350 75 162 145 170 236 264 277 259 242 261 285 294 297 304 311 317 322 333 355 13 17 285 252 259 260 310 335 336 303 299 303 336 346 246 220 224 227 205 194 198 198 180 169 169 129 97 199 195 125 143 166 169 172 101 85 92 61 55 139 189 159 128 126 173 204 162 136 120 179 144 142 162 166 157 156 153 147 149 148 143 137 131 129 127 122 118 115
262 19 220 183 172 210 228 247 237 228 244 258 267 290 296 305 316 323 328 346 22 59 334 277 276 5 39 303 328 305 316 351 18 347 333 274 235 226 204 194 197 191 174 164 176 141 109 177 190 105 94 110 136 126 93 84 83 55 41 11 291 196 162 159 190 198 164 157 172 166 156 154 164 166 160 156 152 146 146 145 140 135 132 129 127 124 124 124
240 294 287 297 237 222 224 237 228 218 233 241 248 266 272 289 300 287 278 317 318 274 290 289 323 13 347 308 58 359 328 13 12 325 344 341 292 234 153 169 217 197 165 156 183 159 128 170 172 116 87 42 38 97 98 96 91 58 38 15 359 18 147 138 123 105 97 118 145 147 148 146 149 155 151 144 141 138 137 137 136 137 136 134 132 131 132 131
166 156 291 331 302 263 253 258 239 213 244 246 244 262 257 255 281 292 293 292 296 300 270 268 308 339 319 313 26 108 239 165 161 300 321 349 336 347 110 141 269 235 142 157 194 166 134 195 200 108 84 26 12 65 92 99 97 76 42 15 11 31 75 96 109 101 84 88 123 130 127 124 137 141 136 137 140 138 139 141 141 142 140 137 135 135 136 133
254 250 239 293 299 287 288 282 240 167 291 273 234 264 282 267 292 324 316 265 238 239 246 268 301 309 312 330 326 269 258 202 197 268 282 267 18 352 52 158 292 27 103 161 169 113 116 150 41 78 83 352 340 58 93 93 86 72 39 12 1 3 75 107 119 132 127 126 124 125 133 150 154 143 138 143 147 144 146 147 144 143 142 138 138 139 137 132
309 275 233 219 281 308 326 305 297 101 269 248 238 270 283 283 305 330 320 287 256 231 225 246 278 283 311 322 286 257 266 263 245 264 257 174 97 54 63 59 62 67 75 176 114 110 128 124 95 87 103 285 297 297 108 84 71 51 351 350 346 326 337 103 69 88 137 135 136 153 166 155 149 147 147 151 153 153 154 152 146 144 142 139 139 139 134 128
Height
817 817 816 816 815 814 813 813 812 811 810 809 808 808 807 806 805 805 804 803 802 801 801 799 798 797 796 794 793 790 788 786 783 784 779 771 770 773 773 773 774 775 776 776 777 777 777 778 777 778 780 781 782 781 778 778 777 783 790 798 803 802 797 788 783 778 776 773 763 755 753 760 766 761 756 756 762 766 772 774 773 773 775 779 786 790 792 794
816 816 815 815 814 813 812 812 811 810 809 809 808 807 806 805 804 804 803 802 801 800 799 798 798 796 795 794 792 790 788 784 783 779 769 766 770 771 771 772 773 774 774 775 775 776 777 777 777 778 781 782 781 779 779 777 776 783 789 796 799 794 786 778 775 773 773 773 764 756 754 757 762 760 756 766 776 772 777 785 780 783 787 789 790 792 794 794
815 814 814 813 813 812 811 811 810 809 808 808 807 806 805 804 803 803 802 801 800 799 799 798 797 796 794 793 791 790 787 785 782 771 761 764 767 767 769 771 771 773 773 774 775 775 776 777 778 779 782 783 781 779 781 778 777 781 785 794 793 784 779 772 770 770 769 769 767 760 752 754 757 755 757 769 779 775 781 787 784 789 792 793 793 792 794 794
813 813 812 812 811 811 810 809 809 808 807 807 806 805 804 803 802 801 801 800 799 798 798 797 796 795 793 792 790 789 787 785 774 761 758 761 762 764 767 768 770 771 772 773 774 775 776 777 778 779 783 785 781 780 782 779 778 779 782 790 785 778 778 770 767 765 763 765 765 760 754 755 754 753 758 767 780 784 782 779 778 784 787 789 793 792 794 796
811 811 810 810 810 809 809 808 808 807 806 805 805 804 803 802 801 800 799 799 798 797 797 796 795 793 792 791 789 788 788 782 765 756 757 757 757 761 764 766 769 770 772 774 774 775 776 777 778 780 783 784 783 782 782 775 776 780 779 781 777 777 778 769 765 761 758 762 760 757 759 757 752 756 759 761 776 784 779 774 773 777 781 785 789 792 795 797
809 809 809 808 808 808 807 807 807 806 805 804 804 803 802 801 800 799 799 798 797 797 796 795 794 793 791 789 788 788 786 774 759 756 756 755 756 758 762 765 767 770 772 773 773 774 775 776 779 782 783 783 783 783 780 773 774 783 781 776 773 773 775 769 764 760 757 760 760 757 757 755 755 761 761 760 769 774 773 773 773 775 779 783 787 791 796 798
807 807 807 806 806 806 806 806 805 805 804 803 802 801 801 800 799 799 797 797 796 795 795 794 793 792 790 788 786 787 786 771 757 758 756 755 756 756 761 764 766 769 770 771 772 774 775 777 780 781 783 783 782 780 777 774 775 783 782 775 771 770 770 768 764 759 755 758 758 755 755 756 760 764 765 767 770 770 772 773 773 778 780 783 788 792 796 799
805 805 804 804 804 804 804 804 804 803 803 802 801 800 800 799 798 797 796 796 795 795 794 793 792 791 789 788 786 786 785 769 756 758 757 756 757 757 761 763 766 768 769 770 770 772 774 777 778 778 783 782 779 778 775 776 777 780 781 774 769 768 767 765 763 759 753 754 755 754 759 764 761 762 769 775 774 771 772 773 775 780 784 788 791 794 797 800
803 803 802 802 802 802 802 802 802 802 801 800 799 799 798 798 797 796 796 795 794 794 793 793 792 791 790 788 788 785 773 759 756 759 758 758 758 758 761 762 766 767 768 769 769 772 774 774 775 775 780 779 777 777 774 780 781 775 774 771 768 766 764 764 763 759 754 752 754 756 765 769 761 763 776 778 774 773 772 775 779 783 788 792 795 797 799 801
801 800 800 800 800 800 800 800 801 800 800 799 798 797 797 796 796 795 795 794 794 793 792 793 791 790 789 788 789 780 761 754 758 759 759 759 759 759 761 761 764 766 767 768 769 771 771 770 771 771 776 776 775 775 774 778 776 768 768 768 766 765 763 763 763 760 755 752 753 758 768 772 761 767 787 784 773 771 773 779 782 786 792 795 798 800 801 803
799 799 798 797 798 798 798 799 799 798 798 797 796 796 795 795 794 794 794 793 793 792 792 792 791 790 789 788 788 773 755 754 757 758 760 760 759 759 759 761 762 764 765 767 768 767 768 768 768 772 776 774 772 773 771 770 769 766 767 768 765 764 765 764 764 762 759 757 754 756 765 770 765 771 784 781 773 770 774 783 785 788 794 796 799 802 803 804
797 796 796 795 795 795 796 796 797 797 796 796 795 794 794 793 793 793 792 792 792 792 792 791 791 790 788 789 783 764 753 754 755 757 760 760 760 759 759 760 761 762 763 765 765 765 767 767 769 775 775 772 774 776 770 764 765 766 766 771 768 764 767 766 763 762 760 761 755 756 769 774 773 776 776 774 773 772 775 784 788 791 795 797 800 803 804 806
794 794 794 793 793 793 794 794 795 795 794 794 793 792 792 792 792 792 791 791 791 790 790 790 790 789 790 785 767 754 753 753 754 756 758 759 760 759 760 760 760 761 762 763 763 763 766 767 770 773 771 774 777 773 766 762 765 767 764 770 772 772 773 764 762 762 760 762 754 761 784 783 778 782 780 777 776 777 782 787 790 793 796 799 802 804 806 807
792 792 792 791 791 791 792 792 793 793 793 792 792 791 790 790 790 790 790 790 789 790 789 789 789 788 790 777 755 752 755 753 754 754 755 758 758 758 759 759 759 760 760 761 762 763 765 767 770 771 770 773 773 768 768 768 768 770 768 769 774 781 778 763 761 764 763 763 754 766 789 786 783 791 791 789 782 780 788 791 792 794 797 801 803 805 807 808
790 790 790 789 789 789 789 790 791 791 791 791 790 789 789 789 789 788 789 788 788 789 787 788 788 788 789 774 754 753 755 753 753 751 753 756 757 757 757 758 758 758 760 760 761 763 764 767 771 773 772 769 770 774 777 776 771 771 778 781 779 781 779 765 760 763 765 764 757 770 787 784 787 793 791 792 788 784 790 794 795 797 799 802 803 806 809 810
788 788 787 787 787 787 788 788 789 790 790 789 788 787 787 787 787 787 787 786 787 787 787 787 785 787 785 768 754 753 753 753 750 749 752 754 756 756 755 757 757 758 759 760 761 762 764 767 769 771 772 771 774 779 782 784 781 776 781 786 782 780 781 773 763 759 761 764 764 771 781 783 787 789 786 787 788 788 793 797 798 800 802 803 805 808 809 812
786 786 785 785 785 785 786 786 787 788 788 787 786 785 785 785 785 785 785 785 785 784 786 784 784 787 776 758 753 753 751 750 747 748 749 750 753 754 755 756 755 757 759 759 761 762 764 767 769 770 770 773 775 778 789 797 794 786 782 783 780 779 781 779 770 761 759 766 771 772 779 786 788 788 787 787 787 791 795 799 801 802 804 805 807 810 811 814
783 783 783 783 783 783 784 784 785 786 786 786 785 784 784 783 783 783 783 783 783 784 786 784 786 784 765 751 753 750 747 748 746 746 747 748 750 752 754 755 754 756 758 761 761 762 766 766 769 773 774 775 774 779 792 796 790 788 785 783 782 779 780 780 773 764 762 768 773 780 791 795 793 793 794 792 790 792 797 799 801 802 805 808 810 813 814 816
781 781 781 781 781 781 782 783 784 785 785 784 784 783 782 781 782 782 781 782 782 781 779 778 778 768 752 747 749 747 747 747 745 746 745 747 749 750 753 753 753 756 760 765 764 762 765 768 772 778 780 778 775 777 783 783 781 782 780 780 781 780 781 778 771 763 762 771 780 789 798 799 799 801 800 800 796 795 799 800 801 804 808 811 813 815 817 818
779 779 779 778 778 779 780 781 782 783 784 783 783 782 781 781 780 780 781 781 778 771 767 768 767 757 748 746 746 747 748 746 746 745 744 745 747 749 751 753 755 757 761 766 766 761 763 774 778 778 778 775 772 772 772 774 776 778 779 780 779 780 781 774 769 763 759 779 797 797 800 803 804 806 803 804 802 799 802 803 805 808 811 814 816 818 819 821
777 777 777 776 776 777 778 779 781 782 782 782 782 783 781 779 778 779 779 776 770 766 765 765 764 757 748 745 746 749 752 749 746 744 744 744 746 750 752 753 759 763 762 762 763 761 763 776 779 773 772 769 767 768 770 773 775 779 782 782 783 782 780 772 767 765 762 785 808 801 804 811 807 807 807 805 806 805 805 806 809 811 813 816 818 820 821 822
775 775 775 775 775 775 777 778 779 780 781 781 781 782 779 775 775 776 776 774 767 763 764 762 762 758 749 747 749 752 757 755 748 743 742 744 746 752 752 753 761 764 761 760 764 768 771 776 773 767 767 765 765 766 769 773 775 781 783 784 787 781 779 774 765 767 768 787 810 804 807 818 811 809 811 809 810 810 809 808 810 813 815 818 819 821 822 823
773 773 773 773 773 774 776 777 778 779 779 778 779 779 774 772 774 775 775 776 767 758 759 759 759 755 749 748 749 752 757 756 752 744 740 743 746 749 751 754 760 762 761 761 766 774 776 772 765 762 763 764 766 765 768 774 776 781 783 786 788 779 781 781 770 772 776 785 803 804 809 819 817 815 814 814 814 812 812 812 813 815 818 820 820 821 823 824
771 771 771 771 772 773 775 776 777 777 776 776 776 773 770 771 774 776 776 776 768 755 752 752 752 750 744 744 747 750 753 751 749 743 737 741 744 747 750 753 758 762 760 759 763 771 771 762 758 760 762 762 766 767 769 777 780 781 780 781 783 778 779 780 775 782 789 794 796 800 816 826 820 821 820 817 816 815 816 816 817 819 820 822 822 823 824 824
769 770 769 770 772 772 774 776 775 774 774 775 773 768 769 771 774 779 779 777 768 754 748 747 747 743 737 741 746 746 750 747 741 738 735 736 740 745 749 748 754 761 759 757 763 769 766 757 755 761 763 763 768 769 769 776 782 783 775 771 775 775 775 775 777 790 808 816 799 789 819 837 825 823 825 821 820 820 820 820 822 823 822 824 826 826 826 826
768 768 767 769 770 771 774 774 772 772 773 772 769 768 770 771 774 778 779 779 768 752 746 746 744 736 731 739 742 743 753 746 733 733 734 734 735 740 747 747 748 755 755 755 761 763 760 754 753 759 763 764 769 770 766 770 783 785 769 761 767 771 773 772 776 792 809 813 794 778 805 834 831 826 825 823 824 824 822 823 823 823 824 825 827 828 828 828
767 766 767 768 768 770 772 772 771 771 771 769 767 770 770 770 775 776 777 777 761 742 741 743 738 730 727 732 734 742 751 739 727 730 729 731 733 735 745 748 746 750 747 752 764 759 752 755 756 758 762 766 771 770 763 764 779 779 759 756 765 767 770 768 771 787 792 789 788 780 792 823 834 827 824 824 825 828 826 825 825 823 825 826 827 829 828 829
766 766 767 768 769 769 770 770 770 769 769 768 767 769 768 770 774 775 779 772 746 729 733 735 730 726 724 728 731 737 736 728 730 731 722 726 731 733 744 747 745 748 741 750 768 757 746 754 757 757 763 767 766 762 757 760 769 765 752 755 761 761 763 762 765 777 779 784 797 793 790 816 834 826 823 826 827 829 828 826 826 824 825 826 827 829 829 830
766 766 767 768 769 770 770 770 770 769 768 767 767 767 765 768 770 772 780 767 736 724 726 725 726 726 725 728 733 733 729 728 731 726 720 725 729 731 741 742 741 746 742 746 759 753 744 747 748 752 761 761 757 753 751 757 760 753 749 755 757 758 758 758 764 769 776 789 800 794 785 804 831 830 825 830 828 827 828 826 826 824 824 826 827 829 830 831
767 767 767 768 769 770 770 770 770 769 768 766 767 765 763 765 769 776 778 753 728 722 722 722 725 725 726 731 735 734 733 732 725 721 724 727 728 730 734 736 738 744 745 746 751 748 740 739 741 745 750 749 748 747 747 750 751 747 750 756 760 762 757 758 765 768 784 797 792 787 780 786 818 828 820 820 817 815 821 825 826 825 824 826 827 829 830 831
767 768 768 769 770 770 770 770 769 769 768 767 765 764 763 764 771 779 765 734 723 724 723 725 725 723 726 731 734 735 735 733 725 724 729 730 733 735 735 739 742 747 751 752 751 747 742 741 741 738 737 740 743 746 745 744 746 749 754 759 768 773 766 768 775 775 793 801 783 782 781 775 799 818 812 808 807 809 814 817 821 824 825 826 826 828 829 831
768 769 770 770 771 770 770 769 769 768 767 767 766 764 765 770 777 775 752 728 727 727 723 726 725 723 727 729 731 733 734 733 727 726 730 733 738 739 738 741 746 753 761 760 756 753 748 743 740 735 732 734 742 750 750 745 746 751 757 764 777 787 784 785 789 789 794 790 775 777 781 780 798 812 808 805 808 811 813 814 817 821 824 825 826 828 829 831
769 770 770 771 770 770 769 769 769 769 766 766 768 764 766 775 773 763 751 741 734 726 721 722 722 723 727 729 731 730 732 733 729 728 728 731 739 741 738 737 738 748 758 758 758 759 756 746 738 737 735 729 736 750 755 753 751 754 759 767 779 790 795 798 798 798 794 784 779 777 778 791 808 812 807 806 809 811 813 816 818 820 823 825 826 829 830 832
770 770 770 770 770 769 769 770 770 769 768 767 767 765 771 777 764 751 751 745 734 726 721 719 721 724 727 729 728 727 732 734 729 728 729 732 741 743 739 737 735 739 747 753 757 758 762 757 741 737 736 728 730 738 743 746 748 750 750 757 769 775 784 794 793 791 789 786 791 790 789 805 817 812 809 808 808 811 814 817 819 821 824 825 827 830 832 834
770 770 769 768 769 769 769 770 770 770 770 768 765 769 777 775 759 749 748 740 732 729 724 720 721 727 731 730 726 724 728 732 729 729 730 732 739 741 738 737 736 736 742 752 754 749 756 755 734 726 728 724 728 730 728 738 748 747 743 751 763 760 763 779 783 782 782 786 800 809 811 817 818 813 811 809 810 813 816 820 822 825 826 827 831 833 834 835
769 768 768 767 768 769 769 770 770 770 770 768 768 775 777 767 754 750 745 738 735 733 729 724 721 729 736 733 730 726 724 728 730 732 732 731 734 736 734 732 731 733 737 745 749 746 753 750 727 722 726 720 723 725 723 733 744 746 747 752 755 747 750 769 782 785 782 787 807 820 822 822 820 819 817 814 816 819 821 824 826 828 830 831 834 835 836 836
769 768 768 767 767 768 769 771 771 771 770 771 773 774 770 760 751 747 742 738 735 732 733 731 724 727 735 735 733 729 726 730 731 733 735 732 731 730 729 728 725 728 731 735 740 738 744 747 729 723 729 721 716 720 721 723 730 742 750 747 744 746 749 759 777 788 786 795 815 821 819 821 822 823 822 819 821 823 825 828 829 831 832 834 836 836 836 836
769 768 767 766 766 767 769 771 771 771 770 773 776 771 763 757 750 744 741 738 734 731 735 736 728 724 729 733 732 727 728 733 733 732 734 733 730 724 724 726 723 723 724 728 736 734 735 745 735 721 725 722 714 721 729 725 723 731 738 735 741 756 762 763 775 786 792 811 826 821 818 820 816 818 821 819 821 823 826 828 829 832 833 834 836 836 835 836
769 769 768 765 765 767 769 771 771 771 771 774 778 771 762 757 749 742 740 735 732 733 736 736 731 728 727 727 727 725 726 731 732 732 732 731 729 722 719 721 721 721 721 725 734 732 731 744 741 723 719 720 719 727 738 737 729 727 731 734 740 749 756 761 769 775 786 813 826 819 819 816 806 808 813 813 816 819 823 827 829 831 832 833 835 835 835 836
770 771 769 766 766 768 769 770 771 773 773 774 774 769 761 756 748 741 738 735 732 734 737 736 732 731 729 725 722 721 723 728 730 731 730 727 727 724 717 715 718 719 719 723 729 730 731 742 743 729 721 725 728 729 732 736 736 734 738 744 746 746 749 756 764 766 776 801 817 819 819 810 798 799 802 807 813 817 820 824 827 829 830 832 833 834 835 836
772 773 771 766 767 768 768 771 773 774 775 774 770 766 760 755 747 740 735 733 731 730 732 733 732 731 731 727 723 720 721 725 727 727 727 725 726 726 716 711 713 716 720 727 729 729 732 738 741 736 732 733 730 721 719 724 728 732 738 743 746 749 752 761 771 767 767 784 801 809 810 805 800 798 797 805 813 816 819 822 825 828 829 831 833 833 835 836
773 773 771 768 769 768 768 773 774 774 774 772 767 761 756 751 745 740 735 730 728 729 729 730 730 730 730 727 724 721 719 721 723 724 724 722 722 720 712 707 709 711 718 726 727 723 726 734 739 737 734 731 723 714 713 717 721 726 731 734 740 746 751 762 770 766 767 781 792 797 799 802 803 799 798 807 813 816 820 821 824 828 828 830 833 833 836 838
776 774 770 769 769 769 771 774 774 773 772 766 760 756 752 749 745 741 738 733 729 729 730 729 728 727 727 725 723 722 719 717 718 718 719 719 715 711 706 704 706 709 714 722 724 721 724 733 739 738 732 726 719 715 714 715 721 729 731 731 736 741 745 751 753 753 764 780 785 787 795 802 803 800 801 809 814 817 821 821 823 827 828 830 833 835 837 839
777 775 772 770 770 771 773 773 772 771 768 762 759 755 750 747 744 741 739 735 730 731 733 730 727 726 725 724 723 722 719 718 716 712 714 716 710 703 701 702 704 706 710 715 717 718 726 735 738 742 745 740 735 734 731 725 725 730 733 732 731 733 740 747 749 749 761 775 772 774 793 807 805 801 804 810 814 819 821 821 822 824 827 830 833 836 838 840
775 775 774 772 772 774 774 772 771 772 768 763 761 757 751 746 741 738 737 732 729 731 734 731 728 727 726 724 724 719 714 716 716 710 709 710 704 698 699 701 702 702 704 706 707 712 725 733 733 740 751 755 753 750 745 737 731 730 731 731 730 732 736 746 754 753 761 772 770 772 794 812 809 804 808 811 814 819 820 821 822 823 826 830 833 837 839 840
774 775 776 775 773 774 773 769 770 772 768 766 763 755 750 747 740 734 732 731 729 729 733 733 729 727 726 724 724 720 714 712 712 709 708 708 703 697 694 697 699 699 700 702 704 710 720 727 727 730 736 742 745 744 738 731 731 733 732 731 732 732 735 746 754 753 758 771 778 782 793 807 811 809 809 811 812 816 819 821 823 824 827 830 833 836 839 841
773 773 774 775 774 774 773 769 769 768 765 765 762 754 749 747 742 737 733 732 733 733 734 733 728 727 728 727 726 723 717 714 712 712 710 705 700 694 690 693 696 696 698 700 703 709 718 726 728 727 728 730 735 738 735 732 734 738 737 737 735 732 736 745 749 751 757 766 780 791 792 798 806 806 804 807 809 812 816 819 821 824 827 831 834 836 839 842
772 770 769 769 769 770 769 766 765 765 763 762 760 755 752 749 746 743 738 734 734 735 736 734 727 725 726 726 728 725 719 717 717 716 713 708 701 695 692 694 693 693 697 701 702 705 716 726 728 730 736 737 737 737 735 739 748 751 749 749 743 736 736 741 745 754 755 752 766 789 793 793 801 803 801 804 805 808 814 816 820 824 827 831 834 837 840 842
771 771 768 766 766 765 763 760 759 760 761 761 758 754 752 750 747 745 740 736 737 736 737 736 729 724 722 721 725 726 722 721 721 719 717 713 707 700 698 700 696 692 696 702 703 703 711 724 726 729 741 747 745 740 735 738 751 758 760 760 755 745 741 744 754 762 761 756 765 783 792 795 799 801 804 806 806 809 814 817 820 824 827 831 834 837 840 843
772 771 770 769 767 764 761 757 756 758 757 757 756 752 749 748 746 744 739 738 741 738 735 735 731 726 722 720 722 724 723 723 724 722 717 714 712 707 705 706 702 696 696 702 704 702 709 725 728 726 740 752 751 748 743 740 747 756 762 765 762 757 755 758 764 768 771 777 781 784 794 802 801 800 804 808 809 811 815 818 822 825 827 830 834 838 840 843
771 770 769 771 769 764 760 757 755 757 756 755 754 751 748 746 745 745 740 734 735 737 733 732 731 728 724 722 722 721 719 719 721 719 714 713 713 709 707 707 703 700 700 702 703 702 707 723 729 727 740 754 754 754 752 744 744 752 760 767 770 768 766 767 768 768 771 781 789 791 796 800 798 799 803 807 810 813 816 819 822 825 828 830 833 837 840 843
770 769 767 770 768 763 761 759 757 757 755 753 752 750 749 747 744 746 744 734 728 730 729 728 729 729 727 724 720 716 714 715 715 714 712 711 711 708 707 707 703 705 708 704 704 708 708 717 728 733 743 755 756 754 748 741 745 755 765 774 777 775 772 770 770 769 768 773 782 785 786 789 792 796 801 805 809 812 815 818 821 825 829 831 833 836 840 843